Location: Newark
(20.0000°S, 47.0000°E)
Time: 23:20:50
(UTC+00:00)

N. Korean satellite - Pass Details

Date: 21 March 2019
Orbit: 457 x 508 km, 97.2° (Epoch: 21 April)

Event Time Altitude Azimuth Distance (km) Brightness Sun altitude
Rises 02:11:57 0° 22° (NNE) 2,559 10.5 -11.2°
Reaches altitude 10° 02:14:02 10° 27° (NNE) 1,692 9.6 -10.7°
Maximum altitude 02:17:34 49° 103° (ESE) 655 7.7 -9.8°
Drops below altitude 10° 02:21:12 10° 178° (S) 1,732 9.4 -9.0°
Sets 02:23:21 0° 183° (S) 2,628 10.3 -8.5°
